Regional Weather Roundup
Issued by NWS Jackson, KY

Home | Current Version | Previous Version | Text Only | Print | Product List | Glossary On
Versions: 1 2 3 4 5 6 7 8 9 10 11 12 13 14 15 16 17 18 19 20 21 22 23 24 25 26 27 28 29 30 31 32 33 34 35 36 37 38 39 40 41 42 43 44 45 46 47 48 49 50
000
ASUS43 KJKL 190819
RWRJKL

EAST KENTUCKY HOURLY WEATHER ROUNDUP
NATIONAL WEATHER SERVICE JACKSON KY
400 AM EDT FRI SEP 19 2014

NOTE: "FAIR" INDICATES FEW OR NO CLOUDS BELOW 12,000 FEET WITH
NO SIGNIFICANT WEATHER AND/OR OBSTRUCTIONS TO VISIBILITY.

* THESE REPORTS ARE NOT UNDER NWS QUALITY CONTROL AND MAY NOT
  REPORT WEATHER SUCH AS PRECIPITATION AND FOG.

KYZ079-080-083-085-087-088-110-112-115-119-120-190900
...EASTERN KENTUCKY...

CITY           SKY/WX    TMP DP  RH WIND       PRES   REMARKS
JACKSON        CLEAR     56  49  77 CALM      30.11S
LONDON         CLEAR     57  52  83 N5        30.10S
MONTICELLO*    CLEAR     54  53  96 CALM      30.09F FOG
WILLIAMSBURG*  CLEAR     54  54 100 CALM      30.09S
MIDDLESBORO*   FOG       54  54 100 CALM      30.10S VSB 1/4
HARLAN APT*    CLOUDY    54  54 100 MISG      30.10S
BLACK MTN*       N/A     54  52  94 S2          N/A
PIKEVILLE APT* CLEAR     54  54 100 N3        30.11S
BIG SANDY*     SUNNY     52  52 100 NE3       30.11S
MOREHEAD APT*  PTSUNNY   55  46  71 NE5       30.14F
$$

KYZ035-036-041-042-044-050-067-078-099-190900
...CENTRAL KENTUCKY...

CITY           SKY/WX    TMP DP  RH WIND       PRES   REMARKS
MT STERLING*   CLEAR     52  48  87 E5        30.14S
FLEMING/MASON* CLEAR     52  48  87 NE5       30.15S
DANVILLE*      CLEAR     52  50  93 CALM      30.11S
RICHMOND*      CLEAR     52  50  93 CALM      30.10S
LEXINGTON      CLEAR     57  48  72 NE9       30.11F
FRANKFORT      CLEAR     56  49  77 NE5       30.11S
$$

KYZ091>093-OHZ055-061-077-WVZ005-015-034-035-042-190900
...SOUTHERN OHIO/WEST VIRGINIA...

CITY           SKY/WX    TMP DP  RH WIND       PRES   REMARKS
COVINGTON      CLEAR     57  47  69 NE8       30.15S
COLUMBUS       CLEAR     56  48  74 NE6       30.17F
DAYTON         CLEAR     50  47  89 NE7       30.18F
WILMINGTON     CLEAR     50  47  89 E6        30.17S
HUNTINGTON     CLEAR     53  49  86 NE5       30.12F
CHARLESTON     FOG       52  52 100 CALM      30.12F VSB 1/4
PINEVILLE*     FOG       54  54 100 MISG      30.17S VSB 3/4
BECKLEY        MOCLDY    52  50  93 CALM      30.14F
BLUEFIELD      CLOUDY    58  53  84 E3        30.15F
$$

VAZ002-007-008-TNZ017-027-036-066-071-190900
...SOUTHWEST VIRGINIA/EAST TENNESSEE...

CITY           SKY/WX    TMP DP  RH WIND       PRES   REMARKS
WISE*          CLEAR     54  54 100 CALM      30.14F FOG
JONESVILLE*    MOSUNNY   52  52 100 CALM      30.11S
ABINGDON*      CLEAR     58  55  89 CALM      30.11S
BRISTOL        CLEAR     55  52  89 CALM      30.09S
KNOXVILLE      MOCLDY    60  57  89 NE5       30.05S
OAK RIDGE      CLEAR     59  57  93 CALM      30.08S
CROSSVILLE     CLEAR     58  54  86 E3        30.08F
NASHVILLE      PTCLDY    61  59  93 N7        30.04S
$$

...KEY TO REMARKS...
VSB - VISIBILITY IN MILES
WCI - WIND CHILL INDEX
HX  - HEAT INDEX

$$



USA.gov is the U.S. government's official web portal to all federal, state and local government web resources and services.